TimeCST,TemperatureF,Dew PointF,Humidity,Sea Level PressureIn,VisibilityMPH,Wind Direction,Wind SpeedMPH,Gust SpeedMPH,PrecipitationIn,Events,Conditions,WindDirDegrees,DateUTC
12:53 AM,43.0,35.1,74,30.16,10.0,ENE,6.9,-,N/A,,Clear,60,2012-11-08 06:53:00
1:53 AM,44.1,34.0,68,30.17,10.0,East,3.5,-,N/A,,Clear,80,2012-11-08 07:53:00
2:53 AM,42.1,35.1,76,30.16,10.0,ENE,4.6,-,N/A,,Clear,70,2012-11-08 08:53:00
3:53 AM,43.0,36.0,76,30.15,10.0,East,3.5,-,N/A,,Clear,90,2012-11-08 09:53:00
4:53 AM,43.0,36.0,76,30.15,10.0,East,8.1,-,N/A,,Clear,80,2012-11-08 10:53:00
5:53 AM,43.0,35.1,74,30.17,10.0,East,5.8,-,N/A,,Clear,80,2012-11-08 11:53:00
6:53 AM,43.0,36.0,76,30.17,10.0,ENE,6.9,-,N/A,,Clear,70,2012-11-08 12:53:00
7:53 AM,46.0,36.0,68,30.19,10.0,East,9.2,-,N/A,,Clear,80,2012-11-08 13:53:00
8:53 AM,50.0,36.0,59,30.19,10.0,East,9.2,-,N/A,,Clear,80,2012-11-08 14:53:00
9:53 AM,55.9,37.0,49,30.18,10.0,ENE,9.2,-,N/A,,Clear,70,2012-11-08 15:53:00
10:53 AM,62.1,34.0,35,30.16,10.0,East,11.5,-,N/A,,Clear,100,2012-11-08 16:53:00
11:53 AM,64.9,35.1,33,30.12,10.0,SE,10.4,-,N/A,,Clear,130,2012-11-08 17:53:00
12:53 PM,68.0,35.1,30,30.08,10.0,SSE,10.4,17.3,N/A,,Clear,150,2012-11-08 18:53:00
1:53 PM,70.0,35.1,28,30.05,10.0,ESE,10.4,-,N/A,,Clear,120,2012-11-08 19:53:00
2:53 PM,72.0,37.0,28,30.02,10.0,SE,9.2,18.4,N/A,,Clear,140,2012-11-08 20:53:00
3:53 PM,73.0,39.0,29,30.01,10.0,SE,11.5,17.3,N/A,,Clear,140,2012-11-08 21:53:00
4:53 PM,70.0,41.0,35,30.00,10.0,SE,6.9,-,N/A,,Clear,130,2012-11-08 22:53:00
5:53 PM,64.9,39.0,39,30.02,10.0,ESE,8.1,-,N/A,,Clear,110,2012-11-08 23:53:00
6:53 PM,63.0,39.9,43,30.03,10.0,SE,10.4,-,N/A,,Clear,130,2012-11-09 00:53:00
7:53 PM,61.0,39.9,46,30.04,10.0,ESE,8.1,-,N/A,,Clear,110,2012-11-09 01:53:00
8:53 PM,54.0,39.9,59,30.04,10.0,ENE,6.9,-,N/A,,Clear,70,2012-11-09 02:53:00
9:53 PM,55.9,41.0,57,30.04,10.0,East,6.9,-,N/A,,Clear,90,2012-11-09 03:53:00
10:53 PM,55.0,41.0,59,30.04,10.0,ENE,8.1,-,N/A,,Clear,60,2012-11-09 04:53:00
11:53 PM,54.0,41.0,62,30.03,10.0,ENE,6.9,-,N/A,,Clear,70,2012-11-09 05:53:00